LEIBLFKB

Guest
Details From LEIB - Ibiza
To LFKB - Bastia Poretta
Flight Number -
Tags decoded
Created
Modified
Stats Distance 445 nm / 825 km
Max Altitude 0 ft / 0 m
Waypoints 5
Social Downloads 8
Likes 0
Share

Download

Looking for another format? Having issues loading an existing format? Contact us
Advertisement - Login to hide

Notes

Requested: LEIB PTC AJO LIBLO LFKB

Route

LEIB PTC AJO LIBLO LFKB

ID Type Via Altitude (ft/m) Position (lat/lon) Dist (leg/tot) Name
O LEIB APT - 0 / 0 38.87287 / 1.37304 - / 0 nm Ibiza
PTC NDB - 0 / 0 39.42732 / 3.25672 93 / 93 nm PORTO COLOM LOM
AJO VOR - 0 / 0 41.77053 / 8.77467 288 / 382 nm AJACCIO VOR-DME
LIBLO FIX - 0 / 0 42.25111 / 8.82833 28 / 411 nm
O LFKB APT - 0 / 0 42.55251 / 9.48371 34 / 445 nm Bastia Poretta

Altitude Profile

Advertisement - Login to hide

Weather


0- 5 10 15 20 25 30 35+ Temperature / °C

Clouds and Precipitation
Forecast for 2022-10-02 18:00 UTC. Updated an hour ago

Ground ~20,000 ft ~40,000 ft Winds

LEIB

Details ICAO LEIB (IBZ)
Name Ibiza
Region Spain
Timezone Europe/Madrid (UTC+2.0)
Stats Elevation 24 ft / 7 m (AMSL)
Location 38.872800° 1.373130°
Runways 1
Magnetic Variation 1.183° E

METAR

LEIB 021600Z 11005KT 070V150 CAVOK 24/15 Q1024 NOSIG

Decode

TAF

TAF LEIB 021400Z 0215/0315 12005KT 9999 FEW025 TX26/0312Z TN19/0305Z PROB40 TEMPO 0310/0315 TS FEW090CB

Decode

Departure Runways

ID Width Length Bearing (true/mag) Surface Threshold Overrun Markings Lighting
06 148 ft / 45 m 9,160 ft / 2,792 m 61.99° / 60.80° ASPHALT 0 ft / 0 m 0 ft / 0 m PREC-APP CENTERLINE EDGE THRESHOLD CALVERT-ILS REIL-OMNI
24 148 ft / 45 m 9,160 ft / 2,792 m 242.00° / 240.82° ASPHALT 0 ft / 0 m 0 ft / 0 m PREC-APP CENTERLINE EDGE THRESHOLD CALVERT TDZ REIL-OMNI

LFKB

Details ICAO LFKB (BIA)
Name Bastia Poretta
Region France
Timezone Europe/Paris (UTC+2.0)
Stats Elevation 24 ft / 7 m (AMSL)
Location 42.552600° 9.483750°
Runways 1
Magnetic Variation 3.003° E

METAR

LFKB 021600Z AUTO 13008KT CAVOK 22/17 Q1019 NOSIG

Decode

TAF

TAF LFKB 021400Z 0215/0315 13012KT CAVOK TX25/0313Z TN15/0305Z BECMG 0216/0218 VRB04KT

Decode

Destination Runways

ID Width Length Bearing (true/mag) Surface Threshold Overrun Markings Lighting
16 148 ft / 45 m 8,273 ft / 2,522 m 162.83° / 159.83° ASPHALT 0 ft / 0 m 102 ft / 31 m APP CENTERLINE EDGE THRESHOLD TDZ REIL-OMNI
34 148 ft / 45 m 8,273 ft / 2,522 m 342.84° / 339.84° ASPHALT 0 ft / 0 m 0 ft / 0 m PREC-APP CENTERLINE EDGE THRESHOLD TDZ REIL-OMNI

Approach Navaids

Runway Type Ident Frequency Range Bearing (true/mag) Slope Elevation
34 DME BP 111.35 MHz 18 nm / 33 km - - 69 ft / 21 m (AMSL)
34 LOC-ILS BP 111.35 MHz 18 nm / 33 km 342.81° / 339.81 ° - 25 ft / 8 m (AMSL)
34 GS BP 111.35 MHz 10 nm / 19 km 343.62° / 340.62 ° 3.00° 25 ft / 8 m (AMSL)

Popular Alternatives